Wind_Speed
49 51 52 54 54 55 57 59 62 63 63 64 66 67 69 70 72 74 75 78 81 84 87 91 95 99 102 104 106 107 106 105 103 101 100 100 99 100
51 52 54 55 56 57 60 63 65 67 68 67 68 70 71 73 75 78 81 84 88 93 98 102 104 106 106 103 98 91 84 78 74 71 69 68 68 68
52 54 55 56 58 61 64 65 67 68 69 68 70 72 75 77 80 84 89 93 97 101 104 104 102 97 89 80 70 63 58 54 51 50 50 51 51 53
54 56 57 59 62 64 65 66 67 68 70 70 72 75 79 83 87 91 96 100 101 100 96 90 82 73 63 55 49 45 43 41 41 42 43 44 45 46
56 58 61 63 64 65 66 67 68 70 73 75 76 80 85 91 95 98 99 96 91 83 76 68 60 52 47 43 40 38 37 37 37 38 40 41 43 46
59 61 63 64 65 66 66 68 70 73 77 80 83 87 93 97 99 97 89 79 70 63 57 52 47 44 41 40 38 37 36 36 36 37 38 40 41 44
61 62 64 64 65 66 68 71 74 78 82 86 91 95 98 97 92 83 71 60 54 52 48 46 44 42 42 41 39 38 37 37 37 37 37 37 38 40
61 62 62 63 65 68 71 75 79 84 89 94 97 98 94 86 75 64 56 50 47 47 45 43 43 41 41 41 40 39 38 38 37 36 36 35 35 35
60 61 62 64 68 71 74 79 85 92 97 99 96 89 79 67 60 53 50 48 45 46 45 40 40 40 40 41 40 39 38 37 35 34 33 33 33 32
59 61 64 67 71 75 80 85 91 96 96 91 83 72 62 55 51 49 47 45 42 43 45 41 38 37 38 40 40 38 36 35 33 31 31 31 31 31
61 64 68 71 76 81 86 91 93 91 85 74 64 56 52 50 49 46 45 43 41 40 43 41 39 37 35 37 39 37 34 32 31 30 30 30 31 31
64 68 73 77 82 88 92 92 87 77 66 57 52 49 48 46 46 46 45 44 42 39 40 39 37 37 31 32 37 36 33 30 29 29 29 30 31 32
67 72 77 82 88 91 90 83 72 61 51 46 44 44 45 45 46 46 46 45 43 41 40 37 33 33 32 27 30 35 33 30 28 28 29 30 33 35
71 76 82 87 89 86 77 66 55 46 43 41 42 43 44 45 45 45 45 44 44 42 40 37 33 30 28 26 26 30 32 30 27 27 29 31 34 36
76 83 87 87 81 71 59 48 41 39 38 39 40 42 43 44 44 43 42 41 41 41 40 37 34 30 27 24 22 25 27 27 27 27 29 31 33 34
82 85 83 76 65 52 41 36 35 35 36 37 39 41 42 43 43 43 40 38 36 36 38 37 33 29 25 22 19 18 20 21 24 28 28 29 31 30
82 78 69 57 45 35 31 31 32 34 36 39 40 41 42 41 41 41 39 37 35 32 31 31 30 27 24 19 13 12 14 17 21 24 24 23 25 25
74 63 51 39 29 26 27 29 32 34 37 39 40 41 41 39 38 38 37 35 32 30 27 24 21 20 19 18 11 7 10 15 19 22 21 19 19 23
58 45 33 25 22 23 25 28 32 34 37 39 40 40 39 38 37 36 34 32 28 26 23 20 17 13 11 13 15 12 11 14 18 19 18 18 19 22
41 29 21 19 20 22 25 28 32 34 36 38 40 40 39 37 35 33 30 27 23 20 19 17 14 11 9 9 12 15 16 16 16 16 18 20 21 21
25 18 16 17 20 23 25 28 32 34 36 38 40 39 38 36 34 30 27 24 21 18 17 15 13 12 11 11 12 14 16 17 17 16 17 18 19 19
15 13 15 18 21 23 25 28 32 34 36 38 40 39 38 35 32 29 26 23 20 18 16 15 13 13 13 14 14 14 16 17 18 18 17 17 16 15
11 12 15 18 21 23 25 28 31 34 36 37 38 38 37 34 32 29 26 23 20 18 17 16 16 16 15 15 15 16 16 17 18 18 17 17 17 16
Wind_Direction
294 295 295 296 296 296 297 298 299 299 299 299 298 298 298 298 298 297 296 294 293 292 291 290 289 288 287 286 284 282 280 278 276 273 271 269 267 264
295 296 297 297 298 299 299 300 300 301 301 301 301 301 301 300 299 299 298 297 296 295 294 294 293 291 290 288 287 285 282 279 276 274 272 270 268 267
296 297 298 299 300 300 301 302 303 303 304 304 304 303 303 302 301 301 300 300 299 298 297 296 294 293 291 289 287 284 280 278 275 273 271 269 268 266
298 299 300 301 301 302 303 304 304 305 305 305 304 304 303 303 303 302 302 301 300 299 297 296 295 294 292 289 286 282 279 277 275 272 270 270 269 268
299 300 301 302 303 304 305 306 306 306 306 306 306 306 305 305 304 304 303 302 300 298 297 297 297 295 292 288 285 282 281 279 276 274 272 272 271 270
301 302 303 304 305 306 307 307 307 308 308 308 308 307 306 305 305 305 304 302 300 298 299 298 296 295 291 288 286 284 284 283 281 279 277 277 277 275
302 303 304 306 307 307 308 308 308 308 308 308 308 307 307 306 306 305 304 302 300 298 298 297 295 293 289 288 286 285 286 286 286 285 284 284 284 283
303 304 306 307 307 308 309 309 309 309 309 308 308 308 308 308 307 306 304 302 299 296 296 294 293 291 288 286 285 284 285 285 286 286 286 287 289 289
304 305 306 307 308 309 310 310 310 310 309 309 309 310 309 308 307 307 305 303 301 297 294 292 290 289 287 285 283 283 283 282 282 282 283 286 288 290
305 306 307 308 309 309 310 310 310 310 310 310 310 310 309 308 308 307 306 303 303 300 296 294 291 289 287 286 284 282 280 279 277 277 280 284 286 287
307 308 309 310 310 310 310 311 311 311 311 311 310 311 311 311 311 310 309 308 306 304 300 298 294 290 287 285 284 282 279 276 274 275 279 282 285 287
310 311 311 311 311 311 311 311 312 312 311 311 312 313 314 313 313 312 311 310 309 307 302 301 297 291 286 282 282 280 277 274 273 275 279 285 289 290
311 311 311 312 312 312 312 313 313 313 313 313 313 314 314 313 313 312 311 311 310 309 307 306 302 295 289 279 274 276 276 274 274 278 284 290 293 293
312 312 313 313 313 313 314 314 315 315 316 316 315 315 314 313 314 313 312 312 311 311 310 309 309 303 293 284 273 269 274 275 276 280 286 292 295 295
313 314 314 314 315 315 315 316 318 319 320 320 319 318 317 316 315 315 313 313 313 312 311 310 310 307 301 292 279 268 267 272 278 284 290 293 294 295
315 315 315 316 316 316 318 321 324 325 325 325 324 322 321 319 318 317 316 314 313 312 311 311 311 310 306 299 287 272 267 269 276 286 292 295 295 296
316 316 316 317 318 321 324 328 330 330 330 329 329 327 325 323 322 320 319 318 317 314 311 310 311 312 312 306 291 277 274 278 285 290 296 298 297 299
318 318 319 320 322 326 330 333 335 336 335 334 333 331 330 328 326 324 323 322 321 319 316 314 313 313 314 314 311 294 288 293 297 302 306 306 304 306
319 320 321 324 329 333 337 339 340 340 340 339 338 337 335 333 331 329 328 327 325 325 325 326 326 324 316 309 316 322 316 311 312 314 315 315 314 313
321 322 325 330 336 339 342 344 345 345 345 345 344 343 342 340 339 338 338 338 339 339 339 342 345 345 337 324 318 320 324 326 324 322 322 322 322 324
323 326 332 337 341 344 346 348 350 351 351 351 350 349 348 348 348 349 352 354 357 360 360 359 358 356 350 341 333 329 332 334 334 331 330 329 328 331
328 334 339 343 345 347 350 352 355 355 355 356 356 356 356 357 360 3 6 9 10 11 11 9 6 0 354 350 347 345 343 342 341 341 341 341 339 337
337 343 346 347 347 349 352 354 357 359 359 359 1 2 4 7 9 12 15 16 18 19 18 15 10 5 2 360 358 357 355 353 350 347 347 347 348 350
Height
5678 5673 5669 5665 5660 5655 5649 5643 5639 5635 5632 5625 5616 5609 5601 5595 5587 5580 5573 5565 5556 5548 5539 5530 5522 5513 5504 5495 5487 5478 5470 5463 5457 5453 5450 5448 5448 5449
5667 5662 5657 5651 5646 5641 5635 5629 5622 5616 5611 5606 5597 5589 5581 5573 5565 5556 5548 5539 5529 5517 5506 5495 5485 5475 5465 5455 5445 5437 5430 5424 5420 5418 5417 5416 5417 5417
5655 5650 5645 5639 5633 5626 5620 5613 5605 5597 5592 5587 5577 5568 5558 5550 5542 5532 5521 5511 5499 5485 5472 5459 5447 5437 5428 5420 5414 5409 5405 5402 5400 5398 5397 5397 5397 5398
5643 5637 5631 5625 5619 5611 5604 5596 5588 5580 5572 5567 5559 5548 5538 5527 5518 5508 5495 5481 5467 5453 5440 5428 5416 5408 5402 5397 5394 5391 5389 5387 5386 5384 5383 5383 5382 5382
5630 5624 5618 5611 5603 5595 5587 5579 5570 5561 5552 5545 5538 5527 5515 5502 5492 5481 5467 5452 5436 5423 5413 5404 5396 5390 5385 5382 5379 5377 5376 5375 5373 5371 5370 5369 5368 5367
5617 5610 5603 5595 5587 5579 5571 5561 5552 5543 5532 5523 5514 5504 5491 5477 5463 5452 5441 5426 5412 5400 5394 5387 5382 5378 5373 5370 5367 5365 5363 5361 5359 5358 5356 5355 5353 5351
5604 5596 5588 5580 5571 5563 5554 5544 5534 5524 5513 5502 5492 5480 5466 5451 5438 5425 5415 5406 5395 5384 5381 5375 5370 5366 5361 5358 5355 5353 5351 5348 5346 5344 5342 5340 5338 5335
5591 5582 5574 5565 5556 5547 5537 5526 5514 5502 5491 5479 5467 5453 5439 5425 5413 5403 5394 5389 5384 5373 5368 5364 5357 5354 5349 5346 5343 5341 5339 5336 5334 5331 5329 5326 5324 5321
5576 5568 5560 5550 5540 5531 5521 5509 5495 5479 5465 5453 5441 5426 5415 5404 5396 5388 5380 5373 5367 5359 5354 5353 5347 5342 5337 5333 5330 5329 5326 5324 5322 5320 5318 5315 5312 5309
5562 5553 5544 5534 5524 5514 5504 5491 5476 5459 5444 5430 5418 5407 5396 5387 5380 5374 5367 5361 5356 5345 5338 5338 5335 5331 5326 5320 5316 5315 5314 5312 5310 5308 5307 5304 5302 5299
5548 5538 5528 5518 5507 5496 5485 5472 5456 5439 5422 5408 5398 5389 5382 5374 5366 5360 5353 5347 5343 5336 5326 5323 5320 5317 5315 5309 5304 5302 5301 5300 5299 5297 5296 5293 5291 5288
5534 5522 5511 5500 5488 5474 5462 5449 5435 5420 5407 5395 5385 5376 5369 5362 5354 5347 5341 5334 5329 5324 5316 5311 5306 5302 5303 5299 5293 5290 5289 5288 5288 5287 5285 5282 5279 5277
5519 5508 5495 5482 5468 5454 5439 5426 5413 5403 5394 5385 5376 5368 5360 5352 5344 5336 5328 5321 5315 5310 5304 5299 5295 5290 5287 5288 5284 5279 5278 5278 5277 5276 5274 5272 5268 5264
5504 5491 5477 5463 5448 5433 5419 5408 5398 5390 5383 5375 5368 5360 5352 5343 5335 5327 5318 5310 5303 5297 5292 5287 5283 5279 5276 5275 5274 5271 5268 5268 5268 5267 5265 5262 5258 5253
5486 5471 5457 5442 5428 5415 5404 5396 5388 5381 5374 5367 5360 5351 5343 5334 5325 5318 5309 5302 5294 5286 5280 5276 5272 5269 5266 5264 5263 5262 5261 5260 5258 5258 5256 5252 5248 5243
5467 5451 5436 5423 5412 5402 5395 5388 5381 5374 5368 5360 5352 5343 5334 5324 5315 5307 5300 5293 5288 5281 5272 5266 5263 5260 5257 5255 5254 5253 5253 5253 5252 5250 5247 5243 5238 5233
5449 5434 5420 5409 5401 5394 5388 5382 5376 5369 5361 5353 5344 5335 5325 5316 5306 5298 5291 5284 5278 5273 5268 5262 5257 5253 5250 5248 5247 5247 5247 5247 5245 5243 5239 5236 5230 5225
5430 5418 5408 5400 5394 5389 5384 5378 5371 5364 5355 5346 5336 5327 5317 5308 5299 5291 5283 5276 5270 5265 5260 5256 5253 5250 5247 5243 5242 5243 5243 5241 5239 5235 5231 5227 5224 5218
5415 5406 5399 5395 5390 5386 5380 5374 5367 5359 5350 5340 5331 5321 5311 5301 5293 5285 5277 5270 5264 5259 5254 5251 5248 5246 5245 5243 5241 5239 5238 5236 5233 5229 5224 5220 5217 5212
5405 5399 5395 5391 5387 5383 5377 5371 5363 5355 5346 5336 5326 5316 5305 5296 5287 5279 5272 5265 5260 5256 5252 5249 5246 5244 5243 5242 5240 5237 5234 5231 5227 5224 5220 5215 5210 5205
5399 5396 5393 5389 5385 5380 5374 5367 5360 5351 5342 5333 5322 5312 5302 5293 5284 5276 5269 5264 5259 5255 5252 5249 5247 5245 5242 5240 5238 5235 5232 5228 5223 5219 5215 5211 5206 5200
5396 5394 5390 5387 5382 5377 5371 5365 5357 5349 5340 5330 5320 5310 5301 5291 5283 5276 5270 5265 5261 5257 5254 5251 5248 5246 5243 5240 5237 5234 5230 5226 5221 5216 5211 5207 5202 5197
5394 5391 5388 5384 5380 5374 5368 5362 5355 5347 5339 5330 5320 5311 5302 5293 5285 5278 5273 5269 5265 5261 5257 5254 5250 5247 5244 5240 5237 5233 5229 5224 5220 5215 5210 5204 5199 5193